This demonstration page uses our WeatherBlox Daily Observations layout. Learn more.

Left ArrowRight Arrow

30.00354, -91.81873

Hourly Observations for September 30, 2022

Temp ( °F °C ) Dew Point ( °F °C ) Humidity (%) Winds ( mph kmh ) Pressure ( in mb ) Visibility ( mi km ) Precip ( " mm )
12:53 am 00:53 Clear 56 13.3 49 9.4 77 77 NNW 5 7 30.05 1018 10 16 0.00 0.00
1:53 am 01:53 Clear 56 13.3 48 8.9 75 75 N 7 11 30.03 1017 10 16 0.00 0.00
2:53 am 02:53 Clear 54 12.2 48 8.9 80 80 N 6 9 30.02 1017 10 16 0.00 0.00
3:53 am 03:53 Clear 53 11.7 48 8.9 83 83 NW 6 9 30.01 1016 10 16 0.00 0.00
4:53 am 04:53 Clear 52 11.1 48 8.9 86 86 N 3 6 30.02 1017 10 16 0.00 0.00
5:53 am 05:53 Clear 51 10.6 46 7.8 83 83 N 5 7 30.03 1017 10 16 0.00 0.00
6:53 am 06:53 Clear 50 10 45 7.2 83 83 N 7 11 30.04 1017 10 16 0.00 0.00
7:53 am 07:53 Sunny 54 12.2 47 8.3 77 77 N 7 11 30.04 1017 10 16 0.00 0.00
8:53 am 08:53 Sunny 60 15.6 49 9.4 67 67 N 8 13 30.04 1017 10 16 0.00 0.00
9:53 am 09:53 Sunny 67 19.4 49 9.4 52 52 NE 8 13 30.05 1018 10 16 0.00 0.00
10:53 am 10:53 Sunny 73 22.8 48 8.9 41 41 NNE 10 17 30.04 1017 10 16 0.00 0.00
11:53 am 11:53 Sunny 75 23.9 46 7.8 36 36 NNE 10 17 30.03 1017 10 16 0.00 0.00
12:53 pm 12:53 Sunny 77 25 44 6.7 31 31 NNE 13 20 29.99 1016 10 16 0.00 0.00
1:53 pm 13:53 Sunny 78 25.6 46 7.8 32 32 NE 13 20 29.96 1015 10 16 0.00 0.00
2:53 pm 14:53 Sunny 80 26.7 47 8.3 31 31 NNE 9 15 29.93 1014 10 16 0.00 0.00
3:53 pm 15:53 Sunny 80 26.7 47 8.3 31 31 NNE 12 19 29.92 1013 10 16 0.00 0.00
4:53 pm 16:53 Sunny 79 26.1 46 7.8 31 31 NNE 12 19 29.91 1013 10 16 0.00 0.00
5:53 pm 17:53 Sunny 78 25.6 47 8.3 33 33 NNE 10 17 29.92 1013 10 16 0.00 0.00
6:53 pm 18:53 Sunny 70 21.1 49 9.4 47 47 N 6 9 29.93 1013 10 16 0.00 0.00
7:53 pm 19:53 Clear 66 18.9 54 12.2 65 65 NNW 3 6 29.93 1014 10 16 0.00 0.00
8:53 pm 20:53 Clear 63 17.2 51 10.6 65 65 N 5 7 29.94 1014 10 16 0.00 0.00
9:53 pm 21:53 Clear 63 17.2 50 10 63 63 N 6 9 29.96 1014 10 16 0.00 0.00
10:53 pm 22:53 Clear 62 16.7 50 10 65 65 N 5 7 29.96 1014 10 16 0.00 0.00
11:53 pm 23:53 Clear 61 16.1 50 10 67 67 NNE 5 7 29.94 1014 10 16 0.00 0.00

Powered by AerisWeather